TimeEST,TemperatureF,Dew PointF,Humidity,Sea Level PressureIn,VisibilityMPH,Wind Direction,Wind SpeedMPH,Gust SpeedMPH,PrecipitationIn,Events,Conditions,WindDirDegrees,DateUTC
12:53 AM,34.0,27.0,75,30.22,10.0,NE,11.5,-,N/A,,Overcast,50,2013-03-07 05:53:00
1:53 AM,33.1,26.1,75,30.23,10.0,NE,12.7,-,N/A,,Overcast,50,2013-03-07 06:53:00
2:53 AM,33.1,26.1,75,30.24,10.0,NE,12.7,-,N/A,,Overcast,50,2013-03-07 07:53:00
3:53 AM,32.0,25.0,75,30.25,10.0,NE,11.5,-,N/A,,Overcast,50,2013-03-07 08:53:00
4:53 AM,32.0,24.1,73,30.25,10.0,NE,12.7,-,N/A,,Overcast,40,2013-03-07 09:53:00
5:53 AM,30.9,23.0,72,30.25,10.0,NE,16.1,-,N/A,,Overcast,50,2013-03-07 10:53:00
6:53 AM,30.9,24.1,76,30.25,10.0,NE,13.8,-,N/A,,Overcast,40,2013-03-07 11:53:00
7:53 AM,32.0,23.0,69,30.25,10.0,NE,12.7,-,N/A,,Overcast,50,2013-03-07 12:53:00
8:53 AM,32.0,23.0,69,30.27,10.0,NE,12.7,-,N/A,,Overcast,50,2013-03-07 13:53:00
9:53 AM,32.0,23.0,69,30.28,10.0,NE,12.7,24.2,N/A,,Overcast,50,2013-03-07 14:53:00
10:53 AM,32.0,23.0,69,30.28,10.0,NE,17.3,-,N/A,,Overcast,50,2013-03-07 15:53:00
11:53 AM,32.0,21.9,66,30.27,10.0,NE,11.5,-,N/A,,Overcast,40,2013-03-07 16:53:00
12:53 PM,32.0,21.0,64,30.27,10.0,NE,13.8,-,N/A,,Overcast,40,2013-03-07 17:53:00
1:53 PM,32.0,21.0,64,30.27,10.0,NE,9.2,-,N/A,,Overcast,50,2013-03-07 18:53:00
2:53 PM,32.0,21.0,64,30.27,10.0,NE,13.8,-,N/A,,Overcast,40,2013-03-07 19:53:00
3:53 PM,30.9,21.9,69,30.29,10.0,NE,13.8,-,N/A,,Overcast,40,2013-03-07 20:53:00
4:53 PM,30.9,21.9,69,30.29,10.0,NNE,12.7,-,N/A,,Overcast,30,2013-03-07 21:53:00
5:53 PM,30.9,21.0,67,30.30,10.0,NNE,10.4,-,N/A,,Overcast,30,2013-03-07 22:53:00
6:53 PM,30.0,21.9,72,30.32,3.0,NE,6.9,-,0.00,Snow,Light Snow,40,2013-03-07 23:53:00
7:24 PM,28.4,23.0,80,30.29,2.5,NNE,8.1,-,0.00,Snow,Light Snow,30,2013-03-08 00:24:00
7:43 PM,30.2,23.0,75,30.29,3.0,NE,6.9,-,0.00,Snow,Light Snow,50,2013-03-08 00:43:00
7:53 PM,30.0,23.0,75,30.31,4.0,NE,5.8,-,0.00,Snow,Light Snow,40,2013-03-08 00:53:00
8:53 PM,30.9,21.0,67,30.31,10.0,North,3.5,-,0.00,,Overcast,10,2013-03-08 01:53:00
9:53 PM,30.0,21.0,69,30.30,10.0,North,4.6,-,N/A,,Overcast,360,2013-03-08 02:53:00
10:53 PM,30.9,21.0,67,30.29,10.0,North,4.6,-,N/A,,Overcast,360,2013-03-08 03:53:00
11:53 PM,30.9,19.9,64,30.27,10.0,NNW,5.8,-,N/A,,Overcast,340,2013-03-08 04:53:00